SCP
0 0 0 0 0 0 0 0 0 0 0 0 0 0 0 0 0 0 0 0 0 0 0 0 0 0 0 0 0 0 0 0 0 0 0 0 1 1
0 0 0 0 0 0 0 0 0 0 0 0 0 0 0 0 0 0 0 0 0 0 0 0 0 0 0 0 0 0 0 0 0 0 0 0 0 0
0 0 0 0 0 0 0 0 0 0 0 0 0 0 -0 0 0 0 0 0 0 0 0 0 0 0 0 0 0 0 0 0 0 0 0 0 0 0
0 0 0 0 0 0 0 0 0 0 0 0 0 0 0 0 0 0 0 0 0 0 0 0 0 0 0 0 0 0 0 0 0 0 0 0 0 0
0 0 0 0 0 0 0 0 0 0 0 0 0 0 0 0 0 0 0 0 0 0 0 0 0 0 0 0 0 0 0 0 0 0 0 0 0 0
0 0 0 0 0 0 0 0 0 0 0 0 0 0 0 0 0 0 0 0 0 0 0 0 0 0 0 0 0 0 0 0 0 0 0 0 0 0
0 0 0 0 0 0 0 0 0 0 0 0 0 0 0 0 0 0 0 0 0 0 0 0 0 0 0 0 0 0 0 0 0 0 0 0 0 0
0 0 0 0 0 0 0 0 0 0 0 0 0 0 0 0 0 0 0 0 0 0 0 0 0 0 0 0 -0 0 0 0 0 0 0 0 0 0
0 0 0 0 0 0 0 0 0 0 0 0 0 0 0 0 0 0 0 0 0 0 0 0 0 0 0 0 0 -0 -0 -0 0 0 0 0 0 0
0 0 0 0 0 0 0 0 0 0 0 0 0 0 0 0 0 0 0 0 0 0 0 0 0 0 0 0 0 -0 -0 -0 -0 -0 0 0 0 0
0 0 0 0 0 0 0 0 0 0 0 0 0 0 0 0 0 0 0 0 0 0 0 0 0 0 0 0 0 0 0 -0 -0 0 0 0 0 0
0 0 0 0 0 0 0 0 0 0 0 0 0 0 0 0 0 -0 0 0 0 0 0 0 0 0 0 0 0 0 0 -0 -0 0 0 0 0 0
0 0 0 0 0 0 0 0 0 0 0 0 0 0 0 0 0 0 0 0 -0 0 0 -0 0 0 0 0 0 0 0 0 0 0 0 -0 -0 0
0 0 0 0 0 0 0 0 -0 -0 0 0 0 0 0 0 0 0 0 0 0 0 0 0 0 0 0 0 0 0 0 0 0 0 0 0 0 0
0 0 0 0 0 0 0 0 0 0 0 -0 -0 0 0 0 0 0 0 0 0 0 0 0 0 0 0 0 0 0 0 0 0 0 0 0 0 0
0 0 0 0 0 0 0 0 0 0 0 0 0 0 0 0 0 0 0 0 0 0 0 0 0 0 0 0 0 0 0 0 0 0 0 0 0 0
0 0 0 0 0 0 0 0 0 0 0 0 0 0 0 0 0 0 0 0 0 0 0 0 0 0 0 0 0 0 0 0 0 0 0 0 0 0
0 0 0 0 0 0 0 0 0 0 0 0 0 0 0 0 0 0 0 0 0 0 0 0 0 0 0 0 0 0 0 0 0 0 0 0 0 0
0 0 0 -0 0 0 0 0 0 0 0 0 0 0 0 0 0 0 0 0 0 0 0 0 0 0 0 0 0 0 0 0 0 0 0 0 0 0
0 0 0 0 0 0 0 0 0 0 0 0 1 0 0 0 0 0 0 0 0 0 0 0 0 0 0 0 0 0 0 0 0 0 0 0 0 0
0 0 0 0 0 0 0 0 0 0 0 1 1 0 0 0 0 0 0 0 0 0 0 0 0 0 0 0 0 0 0 0 0 0 0 0 0 0
0 0 0 0 0 0 0 0 0 0 0 1 0 0 0 0 0 0 0 0 0 0 0 0 0 0 0 0 0 0 0 0 0 0 0 0 0 0
0 0 0 -0 0 1 1 0 0 0 0 0 0 0 0 0 0 0 0 0 0 0 0 0 0 0 0 0 0 0 0 0 0 0 0 0 0 0
Wind_Speed_500mb
4 18 17 8 10 8 6 2 8 12 10 10 15 6 4 15 22 19 18 24 24 25 19 19 21 22 22 39 42 38 51 48 54 71 67 61 58 61
10 13 19 11 14 4 6 4 1 8 5 6 6 10 20 22 23 29 15 12 12 15 19 27 29 25 24 23 33 39 42 39 37 47 78 77 63 57
3 9 11 19 19 11 5 8 4 11 3 11 8 19 28 25 22 23 2 6 16 16 25 35 28 20 23 26 28 31 37 43 47 44 37 45 47 67
7 10 15 11 15 14 4 3 0 6 6 8 11 10 19 25 20 26 16 10 12 15 26 24 24 16 15 16 22 29 33 40 42 46 50 48 48 44
11 8 8 10 17 11 13 12 11 6 2 3 3 13 6 21 15 12 12 15 4 13 15 22 20 24 17 16 15 12 19 27 38 46 51 49 48 45
13 10 12 11 10 10 8 7 3 8 7 7 4 6 3 7 16 10 20 8 8 14 18 21 23 22 20 23 21 16 16 22 24 28 33 44 48 46
12 6 5 6 7 13 9 9 19 9 12 7 6 4 13 10 25 12 17 7 6 12 16 19 16 22 25 26 33 21 19 15 14 16 20 25 30 36
17 11 4 5 5 3 3 5 5 4 8 6 8 10 14 16 17 13 14 15 13 22 24 6 9 21 22 24 35 29 30 20 17 16 17 16 18 21
12 13 11 6 6 6 8 10 16 16 16 5 13 23 16 20 26 13 5 4 5 5 22 18 19 7 23 29 32 30 31 34 20 16 17 20 18 18
14 20 10 11 12 16 7 1 8 10 6 10 18 25 16 16 32 11 22 11 21 13 13 18 15 13 18 29 26 21 31 34 27 23 17 15 17 22
19 16 16 13 12 8 17 12 6 4 15 18 17 23 19 16 13 18 12 11 23 8 6 10 13 21 21 22 15 20 27 24 30 24 25 26 21 13
14 8 9 10 12 13 17 18 17 13 14 8 14 25 21 24 21 6 7 22 19 22 26 22 26 20 22 7 16 22 28 20 27 24 25 21 29 19
27 20 9 9 9 12 16 15 12 20 23 29 33 27 42 37 33 15 10 27 31 27 31 37 39 22 16 31 26 9 23 23 23 28 21 18 22 20
17 30 25 17 8 8 10 8 12 13 18 21 21 35 25 12 10 12 19 30 27 22 13 28 23 27 35 34 23 20 20 19 22 19 21 23 16 19
17 21 18 14 14 13 13 15 19 26 31 25 20 22 27 28 26 25 29 33 29 25 19 27 30 29 36 39 23 28 29 22 15 19 19 24 28 11
37 24 23 27 28 27 25 26 30 27 30 34 30 33 28 20 27 33 25 28 34 26 28 28 29 30 33 37 25 31 24 17 17 20 27 28 25 14
35 33 34 34 33 31 30 33 38 42 41 39 44 41 37 31 38 31 32 33 36 36 34 23 25 33 33 33 38 36 19 19 19 23 27 22 20 8
27 30 28 35 42 49 42 30 36 41 39 40 43 31 41 38 37 36 33 36 36 34 35 27 26 29 32 36 38 44 32 27 28 29 33 32 23 15
38 32 33 38 35 36 35 37 42 45 32 41 36 34 35 35 35 38 45 40 38 37 35 27 24 27 32 39 35 27 31 32 31 35 37 21 27 33
44 43 42 42 46 49 48 49 39 37 28 35 31 33 33 37 37 36 33 41 41 37 23 25 28 33 35 38 35 38 32 41 40 32 24 28 37 42
38 36 44 46 45 41 34 47 52 42 32 38 32 29 27 38 39 45 32 40 27 28 32 39 33 29 31 39 47 41 32 31 34 37 36 41 43 32
41 40 44 49 46 44 36 44 32 31 27 22 43 37 35 29 30 32 29 33 27 28 31 34 28 30 29 33 42 44 43 37 38 42 41 37 39 41
41 53 48 42 40 28 27 33 44 50 43 34 43 22 17 24 28 29 34 34 32 32 36 35 32 38 40 38 39 44 47 43 44 45 46 37 29 34
Wind_Direction_500mb
289 170 151 217 193 177 145 177 272 311 0 185 177 209 349 299 286 281 281 283 290 287 296 300 284 275 270 245 239 236 233 246 239 240 247 234 236 238
242 171 178 167 89 60 107 126 348 276 347 108 120 349 328 317 267 288 272 279 302 310 323 320 307 283 269 259 245 244 241 243 247 259 245 245 239 231
223 136 140 143 138 129 154 137 195 207 273 52 18 344 342 356 20 22 189 279 295 308 332 320 309 294 270 259 253 248 244 243 242 249 237 247 255 255
150 124 129 133 120 152 108 42 51 151 180 55 328 339 343 5 21 10 29 23 308 307 319 338 352 327 310 285 258 245 242 238 238 240 244 251 255 256
126 114 101 121 151 167 151 128 142 89 221 58 2 345 16 4 19 10 4 349 272 316 326 336 346 354 347 335 313 288 260 251 248 248 249 249 257 262
141 142 142 165 164 142 127 109 156 132 57 11 346 344 233 24 350 14 358 260 332 287 301 302 306 335 344 351 347 337 279 262 256 253 255 253 246 247
159 198 159 169 197 180 180 211 174 148 147 101 59 353 352 337 355 326 1 300 328 312 345 322 292 329 319 346 349 320 311 294 283 275 269 261 257 252
184 186 81 105 93 151 294 53 107 150 207 129 47 43 355 320 298 318 359 325 346 338 350 91 339 328 286 324 338 345 355 321 293 282 278 278 272 263
175 121 101 221 37 21 46 57 59 65 69 69 25 359 330 0 358 311 310 322 341 340 314 343 12 300 331 323 322 330 345 345 324 311 286 275 273 265
191 157 180 250 247 211 195 360 355 350 330 1 339 357 1 18 22 57 2 337 338 294 271 334 338 330 315 317 310 329 343 351 352 342 338 323 297 274
204 193 207 218 257 220 187 166 225 291 291 276 320 325 310 317 351 12 357 337 344 154 243 311 323 306 296 310 308 331 331 338 347 357 356 354 342 313
224 251 237 217 270 247 206 202 202 254 277 314 275 305 303 289 271 298 7 12 331 317 311 320 320 318 328 267 334 329 325 320 331 332 334 340 346 0
239 257 257 239 316 245 231 235 254 251 260 262 275 280 298 298 263 231 288 330 335 298 283 305 306 300 277 289 293 284 322 321 307 315 318 325 335 348
219 240 221 213 277 236 236 237 257 272 271 279 275 297 301 324 226 255 278 322 321 329 329 331 327 336 334 310 287 289 286 292 307 316 303 315 306 304
205 214 201 227 247 253 260 254 263 272 283 277 265 286 295 296 294 281 290 304 298 301 314 313 312 321 325 327 297 301 305 286 290 308 286 284 291 301
208 221 226 244 250 264 268 270 271 273 275 276 271 277 278 277 281 287 276 287 282 284 305 304 293 302 313 325 314 297 292 296 304 307 296 293 309 287
217 224 228 239 253 264 272 277 274 272 281 287 260 262 266 265 291 267 273 278 279 284 285 277 296 303 306 311 307 304 304 296 297 295 302 301 305 312
215 225 243 254 262 265 262 287 276 282 276 286 295 251 260 278 281 277 273 273 280 275 279 278 286 293 300 296 294 297 281 274 277 279 283 288 279 293
221 229 242 256 263 269 278 271 278 270 281 283 257 264 265 282 275 280 278 270 275 265 278 275 272 275 289 293 295 300 246 257 271 275 286 284 282 276
235 243 253 256 260 271 269 284 262 263 278 284 273 265 275 272 280 274 286 265 270 265 250 253 262 278 274 279 284 281 257 275 289 281 277 274 275 283
240 258 272 274 278 271 263 263 271 278 270 268 271 285 285 290 287 277 275 272 261 277 283 294 295 272 272 286 291 297 295 290 292 283 270 268 285 296
247 256 269 269 272 275 266 263 274 278 266 277 287 283 282 262 267 278 276 271 277 283 290 289 278 276 278 283 285 286 289 291 282 284 284 279 277 279
266 272 267 264 273 270 259 262 258 273 296 270 268 270 248 266 273 281 275 273 275 276 274 271 268 276 280 274 282 284 285 286 288 287 286 279 267 299
Wind_Speed_850mb
4 18 17 8 10 8 6 2 8 12 10 10 15 6 4 15 22 19 18 24 24 25 19 19 21 22 22 39 42 38 51 48 54 71 67 61 58 61
10 13 19 11 14 4 6 4 1 8 5 6 6 10 20 22 23 29 15 12 12 15 19 27 29 25 24 23 33 39 42 39 37 47 78 77 63 57
3 9 11 19 19 11 5 8 4 11 3 11 8 19 28 25 22 23 2 6 16 16 25 35 28 20 23 26 28 31 37 43 47 44 37 45 47 67
7 10 15 11 15 14 4 3 0 6 6 8 11 10 19 25 20 26 16 10 12 15 26 24 24 16 15 16 22 29 33 40 42 46 50 48 48 44
11 8 8 10 17 11 13 12 11 6 2 3 3 13 6 21 15 12 12 15 4 13 15 22 20 24 17 16 15 12 19 27 38 46 51 49 48 45
13 10 12 11 10 10 8 7 3 8 7 7 4 6 3 7 16 10 20 8 8 14 18 21 23 22 20 23 21 16 16 22 24 28 33 44 48 46
12 6 5 6 7 13 9 9 19 9 12 7 6 4 13 10 25 12 17 7 6 12 16 19 16 22 25 26 33 21 19 15 14 16 20 25 30 36
17 11 4 5 5 3 3 5 5 4 8 6 8 10 14 16 17 13 14 15 13 22 24 6 9 21 22 24 35 29 30 20 17 16 17 16 18 21
12 13 11 6 6 6 8 10 16 16 16 5 13 23 16 20 26 13 5 4 5 5 22 18 19 7 23 29 32 30 31 34 20 16 17 20 18 18
14 20 10 11 12 16 7 1 8 10 6 10 18 25 16 16 32 11 22 11 21 13 13 18 15 13 18 29 26 21 31 34 27 23 17 15 17 22
19 16 16 13 12 8 17 12 6 4 15 18 17 23 19 16 13 18 12 11 23 8 6 10 13 21 21 22 15 20 27 24 30 24 25 26 21 13
14 8 9 10 12 13 17 18 17 13 14 8 14 25 21 24 21 6 7 22 19 22 26 22 26 20 22 7 16 22 28 20 27 24 25 21 29 19
27 20 9 9 9 12 16 15 12 20 23 29 33 27 42 37 33 15 10 27 31 27 31 37 39 22 16 31 26 9 23 23 23 28 21 18 22 20
17 30 25 17 8 8 10 8 12 13 18 21 21 35 25 12 10 12 19 30 27 22 13 28 23 27 35 34 23 20 20 19 22 19 21 23 16 19
17 21 18 14 14 13 13 15 19 26 31 25 20 22 27 28 26 25 29 33 29 25 19 27 30 29 36 39 23 28 29 22 15 19 19 24 28 11
37 24 23 27 28 27 25 26 30 27 30 34 30 33 28 20 27 33 25 28 34 26 28 28 29 30 33 37 25 31 24 17 17 20 27 28 25 14
35 33 34 34 33 31 30 33 38 42 41 39 44 41 37 31 38 31 32 33 36 36 34 23 25 33 33 33 38 36 19 19 19 23 27 22 20 8
27 30 28 35 42 49 42 30 36 41 39 40 43 31 41 38 37 36 33 36 36 34 35 27 26 29 32 36 38 44 32 27 28 29 33 32 23 15
38 32 33 38 35 36 35 37 42 45 32 41 36 34 35 35 35 38 45 40 38 37 35 27 24 27 32 39 35 27 31 32 31 35 37 21 27 33
44 43 42 42 46 49 48 49 39 37 28 35 31 33 33 37 37 36 33 41 41 37 23 25 28 33 35 38 35 38 32 41 40 32 24 28 37 42
38 36 44 46 45 41 34 47 52 42 32 38 32 29 27 38 39 45 32 40 27 28 32 39 33 29 31 39 47 41 32 31 34 37 36 41 43 32
41 40 44 49 46 44 36 44 32 31 27 22 43 37 35 29 30 32 29 33 27 28 31 34 28 30 29 33 42 44 43 37 38 42 41 37 39 41
41 53 48 42 40 28 27 33 44 50 43 34 43 22 17 24 28 29 34 34 32 32 36 35 32 38 40 38 39 44 47 43 44 45 46 37 29 34
Wind_Direction_850mb
289 170 151 217 193 177 145 177 272 311 0 185 177 209 349 299 286 281 281 283 290 287 296 300 284 275 270 245 239 236 233 246 239 240 247 234 236 238
242 171 178 167 89 60 107 126 348 276 347 108 120 349 328 317 267 288 272 279 302 310 323 320 307 283 269 259 245 244 241 243 247 259 245 245 239 231
223 136 140 143 138 129 154 137 195 207 273 52 18 344 342 356 20 22 189 279 295 308 332 320 309 294 270 259 253 248 244 243 242 249 237 247 255 255
150 124 129 133 120 152 108 42 51 151 180 55 328 339 343 5 21 10 29 23 308 307 319 338 352 327 310 285 258 245 242 238 238 240 244 251 255 256
126 114 101 121 151 167 151 128 142 89 221 58 2 345 16 4 19 10 4 349 272 316 326 336 346 354 347 335 313 288 260 251 248 248 249 249 257 262
141 142 142 165 164 142 127 109 156 132 57 11 346 344 233 24 350 14 358 260 332 287 301 302 306 335 344 351 347 337 279 262 256 253 255 253 246 247
159 198 159 169 197 180 180 211 174 148 147 101 59 353 352 337 355 326 1 300 328 312 345 322 292 329 319 346 349 320 311 294 283 275 269 261 257 252
184 186 81 105 93 151 294 53 107 150 207 129 47 43 355 320 298 318 359 325 346 338 350 91 339 328 286 324 338 345 355 321 293 282 278 278 272 263
175 121 101 221 37 21 46 57 59 65 69 69 25 359 330 0 358 311 310 322 341 340 314 343 12 300 331 323 322 330 345 345 324 311 286 275 273 265
191 157 180 250 247 211 195 360 355 350 330 1 339 357 1 18 22 57 2 337 338 294 271 334 338 330 315 317 310 329 343 351 352 342 338 323 297 274
204 193 207 218 257 220 187 166 225 291 291 276 320 325 310 317 351 12 357 337 344 154 243 311 323 306 296 310 308 331 331 338 347 357 356 354 342 313
224 251 237 217 270 247 206 202 202 254 277 314 275 305 303 289 271 298 7 12 331 317 311 320 320 318 328 267 334 329 325 320 331 332 334 340 346 0
239 257 257 239 316 245 231 235 254 251 260 262 275 280 298 298 263 231 288 330 335 298 283 305 306 300 277 289 293 284 322 321 307 315 318 325 335 348
219 240 221 213 277 236 236 237 257 272 271 279 275 297 301 324 226 255 278 322 321 329 329 331 327 336 334 310 287 289 286 292 307 316 303 315 306 304
205 214 201 227 247 253 260 254 263 272 283 277 265 286 295 296 294 281 290 304 298 301 314 313 312 321 325 327 297 301 305 286 290 308 286 284 291 301
208 221 226 244 250 264 268 270 271 273 275 276 271 277 278 277 281 287 276 287 282 284 305 304 293 302 313 325 314 297 292 296 304 307 296 293 309 287
217 224 228 239 253 264 272 277 274 272 281 287 260 262 266 265 291 267 273 278 279 284 285 277 296 303 306 311 307 304 304 296 297 295 302 301 305 312
215 225 243 254 262 265 262 287 276 282 276 286 295 251 260 278 281 277 273 273 280 275 279 278 286 293 300 296 294 297 281 274 277 279 283 288 279 293
221 229 242 256 263 269 278 271 278 270 281 283 257 264 265 282 275 280 278 270 275 265 278 275 272 275 289 293 295 300 246 257 271 275 286 284 282 276
235 243 253 256 260 271 269 284 262 263 278 284 273 265 275 272 280 274 286 265 270 265 250 253 262 278 274 279 284 281 257 275 289 281 277 274 275 283
240 258 272 274 278 271 263 263 271 278 270 268 271 285 285 290 287 277 275 272 261 277 283 294 295 272 272 286 291 297 295 290 292 283 270 268 285 296
247 256 269 269 272 275 266 263 274 278 266 277 287 283 282 262 267 278 276 271 277 283 290 289 278 276 278 283 285 286 289 291 282 284 284 279 277 279
266 272 267 264 273 270 259 262 258 273 296 270 268 270 248 266 273 281 275 273 275 276 274 271 268 276 280 274 282 284 285 286 288 287 286 279 267 299